Back to catalog

ITAMSAT

AliveAmateur RadioSSO
NORAD 22826·PAYLOAD·🇮🇹 Italy

Launched Sep 26, 1993 from Guiana Space Centre

Loading…

Next Passes (next 24 hours)

TLE

FreshSource: Space-Track

Epoch: Sep 14, 2026, 04:11 UTC

1 22826U 93061D   26257.17488645  .00000067  00000-0  42004-4 0  9991
2 22826  98.6745 324.4460 0008987 175.1252 185.0020 14.31389938720047

Track ITAMSAT in real time with AllMySat

Download on the App Store